#datetime,building,power
2023-11-19T00:00:00,axn,26.20
2023-11-19T00:01:00,axn,26.36
2023-11-19T00:02:00,axn,26.21
2023-11-19T00:03:00,axn,26.30
2023-11-19T00:04:00,axn,26.51
2023-11-19T00:05:00,axn,26.60
2023-11-19T00:06:00,axn,25.84
2023-11-19T00:07:00,axn,25.82
2023-11-19T00:08:00,axn,25.85
2023-11-19T00:09:00,axn,26.08
2023-11-19T00:10:00,axn,26.39
2023-11-19T00:11:00,axn,26.10
2023-11-19T00:12:00,axn,26.35
2023-11-19T00:13:00,axn,26.11
2023-11-19T00:14:00,axn,26.19
2023-11-19T00:15:00,axn,26.11
2023-11-19T00:16:00,axn,36.68
2023-11-19T00:17:00,axn,36.44
2023-11-19T00:18:00,axn,36.23
2023-11-19T00:19:00,axn,36.35
2023-11-19T00:20:00,axn,36.19
2023-11-19T00:21:00,axn,26.08
2023-11-19T00:22:00,axn,26.24
2023-11-19T00:23:00,axn,26.07
2023-11-19T00:24:00,axn,25.73
2023-11-19T00:25:00,axn,25.61
2023-11-19T00:26:00,axn,25.83
2023-11-19T00:27:00,axn,25.54
2023-11-19T00:28:00,axn,25.53
2023-11-19T00:29:00,axn,25.68
2023-11-19T00:30:00,axn,25.55
2023-11-19T00:31:00,axn,25.81
2023-11-19T00:32:00,axn,25.60
2023-11-19T00:33:00,axn,25.58
2023-11-19T00:34:00,axn,25.51
2023-11-19T00:35:00,axn,25.63
2023-11-19T00:36:00,axn,25.46
2023-11-19T00:37:00,axn,25.43
2023-11-19T00:38:00,axn,25.52
2023-11-19T00:39:00,axn,25.50
2023-11-19T00:40:00,axn,25.63
2023-11-19T00:41:00,axn,25.65
2023-11-19T00:42:00,axn,25.64
2023-11-19T00:43:00,axn,25.83
2023-11-19T00:44:00,axn,25.71
2023-11-19T00:45:00,axn,25.55
2023-11-19T00:46:00,axn,25.89
2023-11-19T00:47:00,axn,25.64
2023-11-19T00:48:00,axn,25.89
2023-11-19T00:49:00,axn,25.75
2023-11-19T00:50:00,axn,25.88
2023-11-19T00:51:00,axn,25.67
2023-11-19T00:52:00,axn,25.59
2023-11-19T00:53:00,axn,25.96
2023-11-19T00:54:00,axn,25.76
2023-11-19T00:55:00,axn,25.73
2023-11-19T00:56:00,axn,26.36
2023-11-19T00:57:00,axn,26.19
2023-11-19T00:58:00,axn,31.21
2023-11-19T00:59:00,axn,26.04
2023-11-19T01:00:00,axn,26.04
2023-11-19T01:01:00,axn,26.11
2023-11-19T01:02:00,axn,25.97
2023-11-19T01:03:00,axn,25.92
2023-11-19T01:04:00,axn,26.23
2023-11-19T01:05:00,axn,25.99
2023-11-19T01:06:00,axn,25.92
2023-11-19T01:07:00,axn,25.89
2023-11-19T01:08:00,axn,26.14
2023-11-19T01:09:00,axn,26.22
2023-11-19T01:10:00,axn,26.13
2023-11-19T01:11:00,axn,26.38
2023-11-19T01:12:00,axn,26.04
2023-11-19T01:13:00,axn,25.85
2023-11-19T01:14:00,axn,25.83
2023-11-19T01:15:00,axn,25.85
2023-11-19T01:16:00,axn,25.96
2023-11-19T01:17:00,axn,26.10
2023-11-19T01:18:00,axn,26.08
2023-11-19T01:19:00,axn,26.06
2023-11-19T01:20:00,axn,25.97
2023-11-19T01:21:00,axn,26.14
2023-11-19T01:22:00,axn,25.98
2023-11-19T01:23:00,axn,26.61
2023-11-19T01:24:00,axn,26.30
2023-11-19T01:25:00,axn,26.48
2023-11-19T01:26:00,axn,26.69
2023-11-19T01:27:00,axn,26.49
2023-11-19T01:28:00,axn,26.05
2023-11-19T01:29:00,axn,26.32
2023-11-19T01:30:00,axn,25.76
2023-11-19T01:31:00,axn,26.21
2023-11-19T01:32:00,axn,25.66
2023-11-19T01:33:00,axn,26.17
2023-11-19T01:34:00,axn,26.08
2023-11-19T01:35:00,axn,26.47
2023-11-19T01:36:00,axn,26.45
2023-11-19T01:37:00,axn,26.23
2023-11-19T01:38:00,axn,26.05
2023-11-19T01:39:00,axn,26.23
2023-11-19T01:40:00,axn,26.08
2023-11-19T01:41:00,axn,26.39
2023-11-19T01:42:00,axn,26.18
2023-11-19T01:43:00,axn,26.10
2023-11-19T01:44:00,axn,26.16
2023-11-19T01:45:00,axn,25.93
2023-11-19T01:46:00,axn,26.07
2023-11-19T01:47:00,axn,26.05
2023-11-19T01:48:00,axn,26.12
2023-11-19T01:49:00,axn,26.12
2023-11-19T01:50:00,axn,26.19
2023-11-19T01:51:00,axn,26.18
2023-11-19T01:52:00,axn,26.07
2023-11-19T01:53:00,axn,26.03
2023-11-19T01:54:00,axn,26.50
2023-11-19T01:55:00,axn,26.49
2023-11-19T01:56:00,axn,26.49
2023-11-19T01:57:00,axn,26.32
2023-11-19T01:58:00,axn,26.51
2023-11-19T01:59:00,axn,26.60
2023-11-19T02:00:00,axn,26.57
2023-11-19T02:01:00,axn,26.69
2023-11-19T02:02:00,axn,26.73
2023-11-19T02:03:00,axn,26.74
2023-11-19T02:04:00,axn,26.52
2023-11-19T02:05:00,axn,26.32
2023-11-19T02:06:00,axn,26.26
2023-11-19T02:07:00,axn,26.39
2023-11-19T02:08:00,axn,26.37
2023-11-19T02:09:00,axn,29.59
2023-11-19T02:10:00,axn,28.91
2023-11-19T02:11:00,axn,26.18
2023-11-19T02:12:00,axn,25.85
2023-11-19T02:13:00,axn,26.46
2023-11-19T02:14:00,axn,25.93
2023-11-19T02:15:00,axn,26.02
2023-11-19T02:16:00,axn,26.56
2023-11-19T02:17:00,axn,26.04
2023-11-19T02:18:00,axn,26.02
2023-11-19T02:19:00,axn,25.70
2023-11-19T02:20:00,axn,26.02
2023-11-19T02:21:00,axn,26.15
2023-11-19T02:22:00,axn,26.11
2023-11-19T02:23:00,axn,25.96
2023-11-19T02:24:00,axn,26.01
2023-11-19T02:25:00,axn,26.07
2023-11-19T02:26:00,axn,26.17
2023-11-19T02:27:00,axn,26.01
2023-11-19T02:28:00,axn,26.11
2023-11-19T02:29:00,axn,26.04
2023-11-19T02:30:00,axn,26.02
2023-11-19T02:31:00,axn,26.08
2023-11-19T02:32:00,axn,26.16
2023-11-19T02:33:00,axn,26.29
2023-11-19T02:34:00,axn,26.24
2023-11-19T02:35:00,axn,26.29
2023-11-19T02:36:00,axn,26.17
2023-11-19T02:37:00,axn,26.38
2023-11-19T02:38:00,axn,26.37
2023-11-19T02:39:00,axn,26.25
2023-11-19T02:40:00,axn,26.32
2023-11-19T02:41:00,axn,26.41
2023-11-19T02:42:00,axn,26.37
2023-11-19T02:43:00,axn,26.33
2023-11-19T02:44:00,axn,26.39
2023-11-19T02:45:00,axn,26.26
2023-11-19T02:46:00,axn,26.47
2023-11-19T02:47:00,axn,26.51
2023-11-19T02:48:00,axn,26.33
2023-11-19T02:49:00,axn,26.54
2023-11-19T02:50:00,axn,30.91
2023-11-19T02:51:00,axn,30.99
2023-11-19T02:52:00,axn,30.88
2023-11-19T02:53:00,axn,26.22
2023-11-19T02:54:00,axn,26.19
2023-11-19T02:55:00,axn,26.06
2023-11-19T02:56:00,axn,26.04
2023-11-19T02:57:00,axn,26.12
2023-11-19T02:58:00,axn,26.18
2023-11-19T02:59:00,axn,26.26
2023-11-19T03:00:00,axn,26.31
2023-11-19T03:01:00,axn,26.22
2023-11-19T03:02:00,axn,26.56
2023-11-19T03:03:00,axn,26.22
2023-11-19T03:04:00,axn,26.27
2023-11-19T03:05:00,axn,26.21
2023-11-19T03:06:00,axn,26.25
2023-11-19T03:07:00,axn,26.33
2023-11-19T03:08:00,axn,26.09
2023-11-19T03:09:00,axn,26.34
2023-11-19T03:10:00,axn,26.63
2023-11-19T03:11:00,axn,26.44
2023-11-19T03:12:00,axn,26.45
2023-11-19T03:13:00,axn,26.50
2023-11-19T03:14:00,axn,26.41
2023-11-19T03:15:00,axn,26.82
2023-11-19T03:16:00,axn,26.21
2023-11-19T03:17:00,axn,26.61
2023-11-19T03:18:00,axn,26.41
2023-11-19T03:19:00,axn,26.36
2023-11-19T03:20:00,axn,26.58
2023-11-19T03:21:00,axn,26.65
2023-11-19T03:22:00,axn,26.81
2023-11-19T03:23:00,axn,26.75
2023-11-19T03:24:00,axn,26.74
2023-11-19T03:25:00,axn,26.62
2023-11-19T03:26:00,axn,26.19
2023-11-19T03:27:00,axn,25.90
2023-11-19T03:28:00,axn,26.14
2023-11-19T03:29:00,axn,25.76
2023-11-19T03:30:00,axn,26.01
2023-11-19T03:31:00,axn,25.80
2023-11-19T03:32:00,axn,26.46
2023-11-19T03:33:00,axn,26.59
2023-11-19T03:34:00,axn,26.37
2023-11-19T03:35:00,axn,26.33
2023-11-19T03:36:00,axn,26.40
2023-11-19T03:37:00,axn,27.02
2023-11-19T03:38:00,axn,26.80
2023-11-19T03:39:00,axn,26.55
2023-11-19T03:40:00,axn,26.66
2023-11-19T03:41:00,axn,26.70
2023-11-19T03:42:00,axn,26.58
2023-11-19T03:43:00,axn,26.57
2023-11-19T03:44:00,axn,26.71
2023-11-19T03:45:00,axn,26.74
2023-11-19T03:46:00,axn,26.64
2023-11-19T03:47:00,axn,26.82
2023-11-19T03:48:00,axn,26.41
2023-11-19T03:49:00,axn,26.53
2023-11-19T03:50:00,axn,26.51
2023-11-19T03:51:00,axn,26.44
2023-11-19T03:52:00,axn,26.41
2023-11-19T03:53:00,axn,26.48
2023-11-19T03:54:00,axn,26.39
2023-11-19T03:55:00,axn,26.44
2023-11-19T03:56:00,axn,26.52
2023-11-19T03:57:00,axn,26.73
2023-11-19T03:58:00,axn,26.18
2023-11-19T03:59:00,axn,26.66
2023-11-19T04:00:00,axn,26.37
2023-11-19T04:01:00,axn,40.95
2023-11-19T04:02:00,axn,40.76
2023-11-19T04:03:00,axn,40.49
2023-11-19T04:04:00,axn,40.46
2023-11-19T04:05:00,axn,40.18
2023-11-19T04:06:00,axn,26.14
2023-11-19T04:07:00,axn,26.25
2023-11-19T04:08:00,axn,26.66
2023-11-19T04:09:00,axn,26.09
2023-11-19T04:10:00,axn,26.37
2023-11-19T04:11:00,axn,25.89
2023-11-19T04:12:00,axn,26.16
2023-11-19T04:13:00,axn,25.68
2023-11-19T04:14:00,axn,26.13
2023-11-19T04:15:00,axn,25.80
2023-11-19T04:16:00,axn,25.91
2023-11-19T04:17:00,axn,25.56
2023-11-19T04:18:00,axn,25.38
2023-11-19T04:19:00,axn,25.30
2023-11-19T04:20:00,axn,25.36
2023-11-19T04:21:00,axn,25.43
2023-11-19T04:22:00,axn,25.36
2023-11-19T04:23:00,axn,25.87
2023-11-19T04:24:00,axn,25.74
2023-11-19T04:25:00,axn,25.75
2023-11-19T04:26:00,axn,25.98
2023-11-19T04:27:00,axn,25.77
2023-11-19T04:28:00,axn,25.43
2023-11-19T04:29:00,axn,25.70
2023-11-19T04:30:00,axn,25.68
2023-11-19T04:31:00,axn,25.48
2023-11-19T04:32:00,axn,25.52
2023-11-19T04:33:00,axn,25.85
2023-11-19T04:34:00,axn,25.68
2023-11-19T04:35:00,axn,25.56
2023-11-19T04:36:00,axn,25.72
2023-11-19T04:37:00,axn,25.60
2023-11-19T04:38:00,axn,25.71
2023-11-19T04:39:00,axn,25.69
2023-11-19T04:40:00,axn,35.98
2023-11-19T04:41:00,axn,35.72
2023-11-19T04:42:00,axn,35.81
2023-11-19T04:43:00,axn,35.43
2023-11-19T04:44:00,axn,25.74
2023-11-19T04:45:00,axn,25.30
2023-11-19T04:46:00,axn,25.45
2023-11-19T04:47:00,axn,25.36
2023-11-19T04:48:00,axn,31.25
2023-11-19T04:49:00,axn,31.36
2023-11-19T04:50:00,axn,31.53
2023-11-19T04:51:00,axn,25.46
2023-11-19T04:52:00,axn,25.35
2023-11-19T04:53:00,axn,25.55
2023-11-19T04:54:00,axn,25.50
2023-11-19T04:55:00,axn,25.51
2023-11-19T04:56:00,axn,25.56
2023-11-19T04:57:00,axn,25.49
2023-11-19T04:58:00,axn,25.37
2023-11-19T04:59:00,axn,25.45
2023-11-19T05:00:00,axn,25.52
2023-11-19T05:01:00,axn,27.72
2023-11-19T05:02:00,axn,29.66
2023-11-19T05:03:00,axn,32.87
2023-11-19T05:04:00,axn,33.96
2023-11-19T05:05:00,axn,33.76
2023-11-19T05:06:00,axn,33.94
2023-11-19T05:07:00,axn,33.99
2023-11-19T05:08:00,axn,34.45
2023-11-19T05:09:00,axn,34.36
2023-11-19T05:10:00,axn,34.14
2023-11-19T05:11:00,axn,33.91
2023-11-19T05:12:00,axn,32.74
2023-11-19T05:13:00,axn,32.23
2023-11-19T05:14:00,axn,32.12
2023-11-19T05:15:00,axn,31.21
2023-11-19T05:16:00,axn,31.64
2023-11-19T05:17:00,axn,31.28
2023-11-19T05:18:00,axn,31.35
2023-11-19T05:19:00,axn,31.19
2023-11-19T05:20:00,axn,31.62
2023-11-19T05:21:00,axn,31.33
2023-11-19T05:22:00,axn,31.42
2023-11-19T05:23:00,axn,30.73
2023-11-19T05:24:00,axn,30.78
2023-11-19T05:25:00,axn,30.34
2023-11-19T05:26:00,axn,30.49
2023-11-19T05:27:00,axn,29.90
2023-11-19T05:28:00,axn,29.77
2023-11-19T05:29:00,axn,32.75
2023-11-19T05:30:00,axn,30.05
2023-11-19T05:31:00,axn,31.56
2023-11-19T05:32:00,axn,31.67
2023-11-19T05:33:00,axn,31.68
2023-11-19T05:34:00,axn,31.74
2023-11-19T05:35:00,axn,31.87
2023-11-19T05:36:00,axn,31.63
2023-11-19T05:37:00,axn,31.45
2023-11-19T05:38:00,axn,31.65
2023-11-19T05:39:00,axn,31.04
2023-11-19T05:40:00,axn,31.06
2023-11-19T05:41:00,axn,31.28
2023-11-19T05:42:00,axn,31.36
2023-11-19T05:43:00,axn,31.49
2023-11-19T05:44:00,axn,31.60
2023-11-19T05:45:00,axn,31.56
2023-11-19T05:46:00,axn,31.68
2023-11-19T05:47:00,axn,31.37
2023-11-19T05:48:00,axn,31.38
2023-11-19T05:49:00,axn,31.27
2023-11-19T05:50:00,axn,31.47
2023-11-19T05:51:00,axn,31.42
2023-11-19T05:52:00,axn,31.11
2023-11-19T05:53:00,axn,31.06
2023-11-19T05:54:00,axn,31.38
2023-11-19T05:55:00,axn,31.32
2023-11-19T05:56:00,axn,31.71
2023-11-19T05:57:00,axn,31.85
2023-11-19T05:58:00,axn,31.40
2023-11-19T05:59:00,axn,31.72
2023-11-19T06:00:00,axn,30.93
2023-11-19T06:01:00,axn,31.08
2023-11-19T06:02:00,axn,31.17
2023-11-19T06:03:00,axn,30.79
2023-11-19T06:04:00,axn,30.79
2023-11-19T06:05:00,axn,31.12
2023-11-19T06:06:00,axn,31.17
2023-11-19T06:07:00,axn,31.26
2023-11-19T06:08:00,axn,31.30
2023-11-19T06:09:00,axn,31.67
2023-11-19T06:10:00,axn,31.61
2023-11-19T06:11:00,axn,31.79
2023-11-19T06:12:00,axn,31.79
2023-11-19T06:13:00,axn,31.84
2023-11-19T06:14:00,axn,32.07
2023-11-19T06:15:00,axn,32.18
2023-11-19T06:16:00,axn,32.27
2023-11-19T06:17:00,axn,32.35
2023-11-19T06:18:00,axn,32.64
2023-11-19T06:19:00,axn,32.50
2023-11-19T06:20:00,axn,32.67
2023-11-19T06:21:00,axn,33.00
2023-11-19T06:22:00,axn,33.11
2023-11-19T06:23:00,axn,33.28
2023-11-19T06:24:00,axn,32.92
2023-11-19T06:25:00,axn,32.23
2023-11-19T06:26:00,axn,32.36
2023-11-19T06:27:00,axn,31.68
2023-11-19T06:28:00,axn,31.76
2023-11-19T06:29:00,axn,31.86
2023-11-19T06:30:00,axn,31.98
2023-11-19T06:31:00,axn,32.02
2023-11-19T06:32:00,axn,32.01
2023-11-19T06:33:00,axn,32.02
2023-11-19T06:34:00,axn,31.60
2023-11-19T06:35:00,axn,31.75
2023-11-19T06:36:00,axn,31.54
2023-11-19T06:37:00,axn,31.31
2023-11-19T06:38:00,axn,31.52
2023-11-19T06:39:00,axn,30.89
2023-11-19T06:40:00,axn,31.03
2023-11-19T06:41:00,axn,31.69
2023-11-19T06:42:00,axn,31.95
2023-11-19T06:43:00,axn,31.26
2023-11-19T06:44:00,axn,31.44
2023-11-19T06:45:00,axn,31.47
2023-11-19T06:46:00,axn,31.88
2023-11-19T06:47:00,axn,32.02
2023-11-19T06:48:00,axn,31.55
2023-11-19T06:49:00,axn,31.48
2023-11-19T06:50:00,axn,31.53
2023-11-19T06:51:00,axn,30.99
2023-11-19T06:52:00,axn,30.86
2023-11-19T06:53:00,axn,31.14
2023-11-19T06:54:00,axn,31.43
2023-11-19T06:55:00,axn,31.32
2023-11-19T06:56:00,axn,31.00
2023-11-19T06:57:00,axn,31.18
2023-11-19T06:58:00,axn,31.33
2023-11-19T06:59:00,axn,31.11
2023-11-19T07:00:00,axn,30.93
2023-11-19T07:01:00,axn,30.78
2023-11-19T07:02:00,axn,31.19
2023-11-19T07:03:00,axn,34.35
2023-11-19T07:04:00,axn,34.04
2023-11-19T07:05:00,axn,33.49
2023-11-19T07:06:00,axn,32.86
2023-11-19T07:07:00,axn,33.12
2023-11-19T07:08:00,axn,32.91
2023-11-19T07:09:00,axn,33.01
2023-11-19T07:10:00,axn,33.00
2023-11-19T07:11:00,axn,32.57
2023-11-19T07:12:00,axn,32.98
2023-11-19T07:13:00,axn,33.68
2023-11-19T07:14:00,axn,34.90
2023-11-19T07:15:00,axn,33.34
2023-11-19T07:16:00,axn,33.32
2023-11-19T07:17:00,axn,33.88
2023-11-19T07:18:00,axn,33.71
2023-11-19T07:19:00,axn,33.86
2023-11-19T07:20:00,axn,34.11
2023-11-19T07:21:00,axn,34.34
2023-11-19T07:22:00,axn,34.55
2023-11-19T07:23:00,axn,35.96
2023-11-19T07:24:00,axn,35.22
2023-11-19T07:25:00,axn,35.20
2023-11-19T07:26:00,axn,35.27
2023-11-19T07:27:00,axn,35.42
2023-11-19T07:28:00,axn,35.23
2023-11-19T07:29:00,axn,34.94
2023-11-19T07:30:00,axn,34.86
2023-11-19T07:31:00,axn,35.40
2023-11-19T07:32:00,axn,35.98
2023-11-19T07:33:00,axn,36.00
2023-11-19T07:34:00,axn,35.57
2023-11-19T07:35:00,axn,36.12
2023-11-19T07:36:00,axn,37.96
2023-11-19T07:37:00,axn,35.77
2023-11-19T07:38:00,axn,38.31
2023-11-19T07:39:00,axn,37.02
2023-11-19T07:40:00,axn,36.03
2023-11-19T07:41:00,axn,37.09
2023-11-19T07:42:00,axn,39.44
2023-11-19T07:43:00,axn,36.93
2023-11-19T07:44:00,axn,38.98
2023-11-19T07:45:00,axn,37.44
2023-11-19T07:46:00,axn,37.72
2023-11-19T07:47:00,axn,39.41
2023-11-19T07:48:00,axn,39.11
2023-11-19T07:49:00,axn,37.16
2023-11-19T07:50:00,axn,38.11
2023-11-19T07:51:00,axn,38.25
2023-11-19T07:52:00,axn,37.91
2023-11-19T07:53:00,axn,37.56
2023-11-19T07:54:00,axn,37.27
2023-11-19T07:55:00,axn,37.63
2023-11-19T07:56:00,axn,37.68
2023-11-19T07:57:00,axn,38.85
2023-11-19T07:58:00,axn,37.48
2023-11-19T07:59:00,axn,39.77
2023-11-19T08:00:00,axn,37.73
2023-11-19T08:01:00,axn,39.08
2023-11-19T08:02:00,axn,39.04
2023-11-19T08:03:00,axn,38.86
2023-11-19T08:04:00,axn,39.56
2023-11-19T08:05:00,axn,40.15
2023-11-19T08:06:00,axn,39.82
2023-11-19T08:07:00,axn,41.81
2023-11-19T08:08:00,axn,39.59
2023-11-19T08:09:00,axn,40.00
2023-11-19T08:10:00,axn,39.69
2023-11-19T08:11:00,axn,38.94
2023-11-19T08:12:00,axn,38.84
2023-11-19T08:13:00,axn,39.65
2023-11-19T08:14:00,axn,40.76
2023-11-19T08:15:00,axn,40.35
2023-11-19T08:16:00,axn,38.50
2023-11-19T08:17:00,axn,39.26
2023-11-19T08:18:00,axn,41.63
2023-11-19T08:19:00,axn,38.57
2023-11-19T08:20:00,axn,40.90
2023-11-19T08:21:00,axn,39.05
2023-11-19T08:22:00,axn,38.40
2023-11-19T08:23:00,axn,41.12
2023-11-19T08:24:00,axn,38.50
2023-11-19T08:25:00,axn,41.35
2023-11-19T08:26:00,axn,41.13
2023-11-19T08:27:00,axn,40.49
2023-11-19T08:28:00,axn,40.52
2023-11-19T08:29:00,axn,38.58
2023-11-19T08:30:00,axn,38.28
2023-11-19T08:31:00,axn,38.26
2023-11-19T08:32:00,axn,38.85
2023-11-19T08:33:00,axn,38.57
2023-11-19T08:34:00,axn,40.87
2023-11-19T08:35:00,axn,38.71
2023-11-19T08:36:00,axn,38.45
2023-11-19T08:37:00,axn,39.15
2023-11-19T08:38:00,axn,38.84
2023-11-19T08:39:00,axn,39.92
2023-11-19T08:40:00,axn,39.29
2023-11-19T08:41:00,axn,38.82
2023-11-19T08:42:00,axn,38.67
2023-11-19T08:43:00,axn,41.51
2023-11-19T08:44:00,axn,40.18
2023-11-19T08:45:00,axn,40.26
2023-11-19T08:46:00,axn,38.98
2023-11-19T08:47:00,axn,40.15
2023-11-19T08:48:00,axn,41.73
2023-11-19T08:49:00,axn,38.58
2023-11-19T08:50:00,axn,39.43
2023-11-19T08:51:00,axn,40.13
2023-11-19T08:52:00,axn,40.62
2023-11-19T08:53:00,axn,39.91
2023-11-19T08:54:00,axn,43.72
2023-11-19T08:55:00,axn,43.99
2023-11-19T08:56:00,axn,43.35
2023-11-19T08:57:00,axn,40.90
2023-11-19T08:58:00,axn,42.04
2023-11-19T08:59:00,axn,39.30
2023-11-19T09:00:00,axn,39.28
2023-11-19T09:01:00,axn,39.97
2023-11-19T09:02:00,axn,38.89
2023-11-19T09:03:00,axn,38.37
2023-11-19T09:04:00,axn,39.26
2023-11-19T09:05:00,axn,40.73
2023-11-19T09:06:00,axn,38.69
2023-11-19T09:07:00,axn,38.77
2023-11-19T09:08:00,axn,38.77
2023-11-19T09:09:00,axn,39.03
2023-11-19T09:10:00,axn,40.67
2023-11-19T09:11:00,axn,49.94
2023-11-19T09:12:00,axn,50.03
2023-11-19T09:13:00,axn,48.45
2023-11-19T09:14:00,axn,51.06
2023-11-19T09:15:00,axn,48.69
2023-11-19T09:16:00,axn,40.79
2023-11-19T09:17:00,axn,39.44
2023-11-19T09:18:00,axn,40.95
2023-11-19T09:19:00,axn,38.49
2023-11-19T09:20:00,axn,39.73
2023-11-19T09:21:00,axn,38.38
2023-11-19T09:22:00,axn,39.87
2023-11-19T09:23:00,axn,38.30
2023-11-19T09:24:00,axn,38.17
2023-11-19T09:25:00,axn,39.17
2023-11-19T09:26:00,axn,39.99
2023-11-19T09:27:00,axn,38.32
2023-11-19T09:28:00,axn,38.41
2023-11-19T09:29:00,axn,43.35
2023-11-19T09:30:00,axn,39.16
2023-11-19T09:31:00,axn,39.94
2023-11-19T09:32:00,axn,38.44
2023-11-19T09:33:00,axn,38.50
2023-11-19T09:34:00,axn,38.37
2023-11-19T09:35:00,axn,38.41
2023-11-19T09:36:00,axn,38.04
2023-11-19T09:37:00,axn,38.15
2023-11-19T09:38:00,axn,46.61
2023-11-19T09:39:00,axn,52.58
2023-11-19T09:40:00,axn,52.60
2023-11-19T09:41:00,axn,51.85
2023-11-19T09:42:00,axn,52.07
2023-11-19T09:43:00,axn,52.04
2023-11-19T09:44:00,axn,52.03
2023-11-19T09:45:00,axn,38.23
2023-11-19T09:46:00,axn,37.88
2023-11-19T09:47:00,axn,37.83
2023-11-19T09:48:00,axn,37.98
2023-11-19T09:49:00,axn,38.24
2023-11-19T09:50:00,axn,38.44
2023-11-19T09:51:00,axn,38.61
2023-11-19T09:52:00,axn,38.44
2023-11-19T09:53:00,axn,38.13
2023-11-19T09:54:00,axn,37.99
2023-11-19T09:55:00,axn,37.82
2023-11-19T09:56:00,axn,38.22
2023-11-19T09:57:00,axn,38.24
2023-11-19T09:58:00,axn,38.21
2023-11-19T09:59:00,axn,38.18
2023-11-19T10:00:00,axn,38.20
2023-11-19T10:01:00,axn,37.84
2023-11-19T10:02:00,axn,38.25
2023-11-19T10:03:00,axn,38.52
2023-11-19T10:04:00,axn,38.25
2023-11-19T10:05:00,axn,38.49
2023-11-19T10:06:00,axn,54.84
2023-11-19T10:07:00,axn,38.45
2023-11-19T10:08:00,axn,38.73
2023-11-19T10:09:00,axn,38.53
2023-11-19T10:10:00,axn,38.45
2023-11-19T10:11:00,axn,38.54
2023-11-19T10:12:00,axn,38.45
2023-11-19T10:13:00,axn,38.77
2023-11-19T10:14:00,axn,38.68
2023-11-19T10:15:00,axn,38.25
2023-11-19T10:16:00,axn,38.35
2023-11-19T10:17:00,axn,38.28
2023-11-19T10:18:00,axn,39.45
2023-11-19T10:19:00,axn,39.10
2023-11-19T10:20:00,axn,38.73
2023-11-19T10:21:00,axn,38.70
2023-11-19T10:22:00,axn,39.02
2023-11-19T10:23:00,axn,39.18
2023-11-19T10:24:00,axn,39.46
2023-11-19T10:25:00,axn,39.26
2023-11-19T10:26:00,axn,39.86
2023-11-19T10:27:00,axn,39.05
2023-11-19T10:28:00,axn,38.84
2023-11-19T10:29:00,axn,39.00
2023-11-19T10:30:00,axn,39.10
2023-11-19T10:31:00,axn,39.59
2023-11-19T10:32:00,axn,39.53
2023-11-19T10:33:00,axn,39.52
2023-11-19T10:34:00,axn,38.94
2023-11-19T10:35:00,axn,39.01
2023-11-19T10:36:00,axn,39.10
2023-11-19T10:37:00,axn,39.17
2023-11-19T10:38:00,axn,39.37
2023-11-19T10:39:00,axn,39.24
2023-11-19T10:40:00,axn,39.12
2023-11-19T10:41:00,axn,39.19
2023-11-19T10:42:00,axn,39.54
2023-11-19T10:43:00,axn,39.62
2023-11-19T10:44:00,axn,39.51
2023-11-19T10:45:00,axn,39.13
2023-11-19T10:46:00,axn,39.01
2023-11-19T10:47:00,axn,38.93
2023-11-19T10:48:00,axn,38.77
2023-11-19T10:49:00,axn,38.79
2023-11-19T10:50:00,axn,39.68
2023-11-19T10:51:00,axn,39.35
2023-11-19T10:52:00,axn,39.49
2023-11-19T10:53:00,axn,39.69
2023-11-19T10:54:00,axn,39.85
2023-11-19T10:55:00,axn,39.35
2023-11-19T10:56:00,axn,39.30
2023-11-19T10:57:00,axn,38.84
2023-11-19T10:58:00,axn,38.86
2023-11-19T10:59:00,axn,38.86
2023-11-19T11:00:00,axn,38.58
2023-11-19T11:01:00,axn,38.94
2023-11-19T11:02:00,axn,38.50
2023-11-19T11:03:00,axn,42.37
2023-11-19T11:04:00,axn,42.31
2023-11-19T11:05:00,axn,39.20
2023-11-19T11:06:00,axn,38.92
2023-11-19T11:07:00,axn,38.07
2023-11-19T11:08:00,axn,38.50
2023-11-19T11:09:00,axn,37.68
2023-11-19T11:10:00,axn,37.72
2023-11-19T11:11:00,axn,44.93
2023-11-19T11:12:00,axn,37.64
2023-11-19T11:13:00,axn,37.79
2023-11-19T11:14:00,axn,38.22
2023-11-19T11:15:00,axn,37.66
2023-11-19T11:16:00,axn,37.29
2023-11-19T11:17:00,axn,37.36
2023-11-19T11:18:00,axn,37.44
2023-11-19T11:19:00,axn,37.12
2023-11-19T11:20:00,axn,37.96
2023-11-19T11:21:00,axn,37.67
2023-11-19T11:22:00,axn,37.85
2023-11-19T11:23:00,axn,38.08
2023-11-19T11:24:00,axn,37.62
2023-11-19T11:25:00,axn,37.76
2023-11-19T11:26:00,axn,38.18
2023-11-19T11:27:00,axn,37.74
2023-11-19T11:28:00,axn,37.75
2023-11-19T11:29:00,axn,37.65
2023-11-19T11:30:00,axn,38.14
2023-11-19T11:31:00,axn,37.96
2023-11-19T11:32:00,axn,37.98
2023-11-19T11:33:00,axn,37.95
2023-11-19T11:34:00,axn,37.66
2023-11-19T11:35:00,axn,37.74
2023-11-19T11:36:00,axn,37.63
2023-11-19T11:37:00,axn,37.75
2023-11-19T11:38:00,axn,37.68
2023-11-19T11:39:00,axn,37.66
2023-11-19T11:40:00,axn,37.58
2023-11-19T11:41:00,axn,37.55
2023-11-19T11:42:00,axn,37.71
2023-11-19T11:43:00,axn,37.85
2023-11-19T11:44:00,axn,38.97
2023-11-19T11:45:00,axn,38.69
2023-11-19T11:46:00,axn,38.13
2023-11-19T11:47:00,axn,38.19
2023-11-19T11:48:00,axn,38.08
2023-11-19T11:49:00,axn,38.11
2023-11-19T11:50:00,axn,38.89
2023-11-19T11:51:00,axn,38.50
2023-11-19T11:52:00,axn,37.96
2023-11-19T11:53:00,axn,38.37
2023-11-19T11:54:00,axn,37.66
2023-11-19T11:55:00,axn,37.55
2023-11-19T11:56:00,axn,37.88
2023-11-19T11:57:00,axn,37.94
2023-11-19T11:58:00,axn,38.02
2023-11-19T11:59:00,axn,37.77
2023-11-19T12:00:00,axn,37.84
2023-11-19T12:01:00,axn,37.87
2023-11-19T12:02:00,axn,37.88
2023-11-19T12:03:00,axn,37.81
2023-11-19T12:04:00,axn,37.69
2023-11-19T12:05:00,axn,37.55
2023-11-19T12:06:00,axn,37.49
2023-11-19T12:07:00,axn,38.23
2023-11-19T12:08:00,axn,38.20
2023-11-19T12:09:00,axn,37.98
2023-11-19T12:10:00,axn,37.89
2023-11-19T12:11:00,axn,38.62
2023-11-19T12:12:00,axn,37.66
2023-11-19T12:13:00,axn,37.48
2023-11-19T12:14:00,axn,37.68
2023-11-19T12:15:00,axn,37.67
2023-11-19T12:16:00,axn,37.93
2023-11-19T12:17:00,axn,37.76
2023-11-19T12:18:00,axn,37.58
2023-11-19T12:19:00,axn,37.33
2023-11-19T12:20:00,axn,37.22
2023-11-19T12:21:00,axn,37.39
2023-11-19T12:22:00,axn,37.15
2023-11-19T12:23:00,axn,37.10
2023-11-19T12:24:00,axn,37.13
2023-11-19T12:25:00,axn,37.44
2023-11-19T12:26:00,axn,37.26
2023-11-19T12:27:00,axn,36.59
2023-11-19T12:28:00,axn,36.52
2023-11-19T12:29:00,axn,36.61
2023-11-19T12:30:00,axn,36.70
2023-11-19T12:31:00,axn,37.01
2023-11-19T12:32:00,axn,37.41
2023-11-19T12:33:00,axn,37.04
2023-11-19T12:34:00,axn,37.04
2023-11-19T12:35:00,axn,36.92
2023-11-19T12:36:00,axn,37.31
2023-11-19T12:37:00,axn,37.50
2023-11-19T12:38:00,axn,37.32
2023-11-19T12:39:00,axn,37.27
2023-11-19T12:40:00,axn,37.33
2023-11-19T12:41:00,axn,37.58
2023-11-19T12:42:00,axn,37.42
2023-11-19T12:43:00,axn,37.49
2023-11-19T12:44:00,axn,37.41
2023-11-19T12:45:00,axn,37.45
2023-11-19T12:46:00,axn,37.80
2023-11-19T12:47:00,axn,37.63
2023-11-19T12:48:00,axn,38.07
2023-11-19T12:49:00,axn,37.88
2023-11-19T12:50:00,axn,37.62
2023-11-19T12:51:00,axn,37.56
2023-11-19T12:52:00,axn,37.84
2023-11-19T12:53:00,axn,38.28
2023-11-19T12:54:00,axn,37.86
2023-11-19T12:55:00,axn,38.21
2023-11-19T12:56:00,axn,38.57
2023-11-19T12:57:00,axn,38.55
2023-11-19T12:58:00,axn,38.29
2023-11-19T12:59:00,axn,38.17
2023-11-19T13:00:00,axn,38.16
2023-11-19T13:01:00,axn,38.02
2023-11-19T13:02:00,axn,38.30
2023-11-19T13:03:00,axn,44.50
2023-11-19T13:04:00,axn,44.57
2023-11-19T13:05:00,axn,44.75
2023-11-19T13:06:00,axn,38.67
2023-11-19T13:07:00,axn,38.37
2023-11-19T13:08:00,axn,38.63
2023-11-19T13:09:00,axn,38.28
2023-11-19T13:10:00,axn,38.41
2023-11-19T13:11:00,axn,38.67
2023-11-19T13:12:00,axn,38.79
2023-11-19T13:13:00,axn,38.65
2023-11-19T13:14:00,axn,38.52
2023-11-19T13:15:00,axn,49.65
2023-11-19T13:16:00,axn,39.06
2023-11-19T13:17:00,axn,39.30
2023-11-19T13:18:00,axn,39.39